Torna al catalogo

COSMOS 1823 DEB

AttivoLEO
NORAD 18728·DEBRIS·🇷🇺 Russia

Lanciato Feb 20, 1987 da Plesetsk Cosmodrome

Loading…

Prossimi Passaggi (prossime 24 ore)

TLE

AggiornatoSource: Space-Track

Epoca: Sep 13, 2026, 10:35 UTC

1 18728U 87020F   26256.44134440  .00000073  00000-0  70579-3 0  9999
2 18728  73.6196 162.8609 0067146 312.7708 165.8331 12.36072458746769

Traccia COSMOS 1823 DEB in tempo reale con AllMySat

Download on the App Store